Regional Weather Roundup
Issued by NWS

Home | Current Version | Previous Version | Graphics & Text | Print | Product List | Glossary On
Versions: 1 2 3 4 5 6 7 8 9 10 11 12 13 14 15 16 17 18 19 20 21 22 23 24 25 26 27 28 29 30 31 32 33 34 35 36 37 38 39 40 41 42 43 44 45 46 47 48 49 50
739
ASUS43 KIND 231759
RWRIN

WEATHER ROUNDUP FOR INDIANA
NATIONAL WEATHER SERVICE INDIANAPOLIS IN
200 PM EDT MON APR 23 2018

NOTE: "FAIR" INDICATES FEW OR NO CLOUDS BELOW 12,000 FEET WITH NO
SIGNIFICANT WEATHER AND/OR OBSTRUCTIONS TO VISIBILITY.

* - STATION DOES NOT REPORT WEATHER SUCH AS PRECIPITATION OR FOG.

+ - STATION NOT QUALITY CONTROLLED BY THE NATIONAL WEATHER SERVICE.
    USE DATA WITH CAUTION...ESPECIALLY DEWPOINT AND RELATIVE
    HUMIDITY OBSERVATIONS.

INZ001>003-010>013-019-020-231900-
NORTHWEST INDIANA

CITY           SKY/WX    TMP DP  RH WIND       PRES   REMARKS
GARY /AIRPORT/ PTSUNNY   50  34  53 N8        30.14F
KNOX *+        PTSUNNY   68  41  37 E8        30.09F
MONTICELLO +   FAIR      64  41  42 SE8G16    30.10F
6HR MIN TEMP:  45; 6HR MAX TEMP:  64;


$$

LMZ046-743>745-231900-
SOUTHERN LAKE MICHIGAN

STATION/POSITION TIME  TEMP    WIND        PRES    WAVE
                       AIR SEA DIR/SP/G            HT
                 (UTC) (F)     (DEG/KT/KT) (MB)    (FT)
BURNS HARBOR     1740   42     350/  3/  5 1020.7F
MICHIGAN CITY    1730   42      20/  6/  7   N/A

$$

INZ004-005-014>016-021>024-231900-
NORTH CENTRAL INDIANA

CITY           SKY/WX    TMP DP  RH WIND       PRES   REMARKS
ELKHART        FAIR      72  41  33 SE14      30.12F
GOSHEN         FAIR      69  45  41 E12       30.11F
6HR MIN TEMP:  43; 6HR MAX TEMP:  69;

ROCHESTER +    FAIR      66  41  39 SE9       30.12S
SOUTH BEND     FAIR      66  40  38 E9G20     30.12F
6HR MIN TEMP:  45; 6HR MAX TEMP:  67;

WARSAW +       FAIR      70  45  40 SE12      30.11F

$$

INZ006>009-017-018-025>027-231900-
NORTHEAST INDIANA

CITY           SKY/WX    TMP DP  RH WIND       PRES   REMARKS
ANGOLA *+      FAIR      66  45  45 E12       30.13F
FORT WAYNE     PTSUNNY   70  46  42 E15G22    30.12F
6HR MIN TEMP:  43; 6HR MAX TEMP:  71;


$$

INZ028-029-035-036-043>045-051>053-231900-
WEST CENTRAL INDIANA

CITY           SKY/WX    TMP DP  RH WIND       PRES   REMARKS
GREENCASTLE +  LGT RAIN  54  52  94 E9        30.08F
LAFAYETTE      CLOUDY    64  49  57 E18G24    30.09F
6HR MIN TEMP:  46; 6HR MAX TEMP:  64;

TERRE HAUTE    LGT RAIN  55  53  93 E13       30.05F
6HR MIN TEMP:  49; 6HR MAX TEMP:  55; 6HR PCP:  0.28;


$$

INZ030>032-037>040-046>048-054>057-064-065-231900-
CENTRAL INDIANA

CITY           SKY/WX    TMP DP  RH WIND       PRES   REMARKS
COLUMBUS       LGT RAIN  54 N/A N/A E9        30.10F FOG
GREENWOOD *+   CLOUDY    53  52  96 E13       30.10F
INDIANAPOLIS   LGT RAIN  54  52  93 E12       30.09F
6HR MIN TEMP:  51; 6HR MAX TEMP:  56; 6HR PCP:  0.10;

-EAGLE CREEK   LGT RAIN  54  50  86 E13       30.10S
6HR MIN TEMP:  49; 6HR MAX TEMP:  56; 6HR PCP:  0.09;

KOKOMO +       CLOUDY    64  44  48 E14       30.12F
6HR MIN TEMP:  44; 6HR MAX TEMP:  64;

MT COMFORT *+  CLOUDY    52  52 100 E12       30.12F
SHELBYVILLE    RAIN      56  51  84 E13       30.09F
6HR MIN TEMP:  53; 6HR MAX TEMP:  56; 6HR PCP:  0.31;

ZIONSVILLE +   LGT RAIN  53  51  94 E8        30.12S
6HR MIN TEMP:  45; 6HR MAX TEMP:  57; 6HR PCP:  0.04;


$$

INZ033-034-041-042-049-050-058-059-231900-
EAST CENTRAL INDIANA

CITY           SKY/WX    TMP DP  RH WIND       PRES   REMARKS
MUNCIE         LGT RAIN  58  52  80 SE10      30.14R
6HR MIN TEMP:  46; 6HR MAX TEMP:  65; 6HR PCP:  0.05;

RICHMOND +     LGT RAIN  52  52 100 SE13      30.15F

$$

INZ060-061-067>069-081>083-085>088-231900-
SOUTHWEST INDIANA

CITY           SKY/WX    TMP DP  RH WIND       PRES   REMARKS
EVANSVILLE     CLOUDY    61  56  83 E9        29.96F
6HR MIN TEMP:  54; 6HR MAX TEMP:  61; 6HR PCP: TRACE;

HUNTINGBURG +  CLOUDY    61  55  81 E15G21    29.99S
6HR MIN TEMP:  54; 6HR MAX TEMP:  62; 6HR PCP: TRACE;


$$

INZ062-063-066-070>080-084-089>092-231900-
SOUTH CENTRAL AND SOUTHEAST INDIANA

CITY           SKY/WX    TMP DP  RH WIND       PRES   REMARKS
BLOOMINGTON    LGT RAIN  54  53  97 E12       30.05F FOG
6HR MIN TEMP:  49; 6HR MAX TEMP:  54; 6HR PCP:  0.69;

SEYMOUR +      LGT RAIN  55  54  94 E9        30.07

$$





USA.gov is the U.S. government's official web portal to all federal, state and local government web resources and services.